WXM80 ListenWXM80 Stop

You find our weather info also at:

UK Metoffice

WeatherCloud

Weather Underground

Northeastern Weather Network

AWEKAS

Citizen Weather Observer Program (CWOP)

HAMweather, WeatherForYou, PWS Weather


Weather Underground History page Text

Daily Summary for February 25, 2018 Units:  English    Metric   Both
« Previous Day
Next Day »
Daily Weekly Monthly Yearly Custom
  Current: High: Low: Average:
Temperature: 39.3 °F TemperatureF °F 38.9 °F 39.6 °F
Dew Point: 38.8 °F DewpointF °F 38.1 °F 38.7 °F
Humidity: 98 % Humidity % 94 % 96 %
Wind Speed: 5.4 mph WindSpeedMPH mph 0.3 mph 7 mph
Wind Gust: 8.1 mph WindSpeedGustMPH mph - -
Wind:NE - - ENE
Pressure: 29.72 in PressureIn in 29.66 in -
Precipitation: 0.58 in      
Historical Graphs
 
 
Tabular Data for February 25, 2018
Time Temperature Dew Point Pressure Wind Wind Speed Wind Gust Humidity Rainfall Rate (Hourly)
TemperatureF °F DewpointF °F PressureIn in Calm     Humidity % HourlyPrecipIn in
00:00 41.5 °F 40.2 °F 29.97 in ENE 0.3 mph 2.0 mph 95 % 0.00 in
00:05 41.4 °F 40.1 °F 29.97 in ENE 1.5 mph 2.3 mph 95 % 0.00 in
00:10 41.4 °F 40.1 °F 29.97 in ENE 1.4 mph 3.0 mph 95 % 0.00 in
00:15 41.4 °F 40.1 °F 29.96 in ENE 0.8 mph 2.0 mph 95 % 0.00 in
00:20 41.4 °F 40.1 °F 29.96 in ENE 1.3 mph 2.3 mph 95 % 0.00 in
00:25 41.5 °F 40.2 °F 29.96 in ENE 2.6 mph 3.5 mph 95 % 0.00 in
00:30 41.5 °F 40.2 °F 29.96 in ENE 2.2 mph 3.5 mph 95 % 0.00 in
00:35 41.5 °F 40.2 °F 29.96 in East 2.8 mph 5.8 mph 95 % 0.00 in
00:40 41.4 °F 40.1 °F 29.96 in ENE 1.4 mph 2.3 mph 95 % 0.00 in
00:45 41.4 °F 40.1 °F 29.96 in East 2.8 mph 5.0 mph 95 % 0.00 in
00:50 41.4 °F 40.1 °F 29.95 in East 2.8 mph 3.5 mph 95 % 0.00 in
00:55 41.4 °F 40.1 °F 29.95 in East 3.4 mph 4.6 mph 95 % 0.00 in
01:00 41.4 °F 40.1 °F 29.96 in East 3.8 mph 4.6 mph 95 % 0.00 in
01:06 41.4 °F 40.1 °F 29.95 in East 3.0 mph 7.0 mph 95 % 0.00 in
01:11 41.4 °F 40.1 °F 29.96 in East 2.0 mph 5.0 mph 95 % 0.00 in
01:16 41.5 °F 40.2 °F 29.95 in East 1.5 mph 3.5 mph 95 % 0.00 in
01:21 41.5 °F 40.2 °F 29.96 in East 2.0 mph 3.0 mph 95 % 0.00 in
01:26 41.5 °F 40.2 °F 29.95 in East 2.0 mph 5.0 mph 95 % 0.00 in
01:31 41.5 °F 40.2 °F 29.95 in East 1.0 mph 5.0 mph 95 % 0.00 in
01:36 41.5 °F 40.2 °F 29.95 in East 3.0 mph 5.0 mph 95 % 0.00 in
01:41 41.5 °F 40.2 °F 29.95 in East 2.0 mph 5.0 mph 95 % 0.00 in
01:46 41.6 °F 40.3 °F 29.96 in East 1.0 mph 5.0 mph 95 % 0.00 in
01:51 41.6 °F 40.3 °F 29.96 in East 1.0 mph 3.0 mph 95 % 0.00 in
01:56 41.6 °F 40.3 °F 29.95 in East 2.0 mph 5.0 mph 95 % 0.00 in
02:01 41.6 °F 40.3 °F 29.95 in East 2.1 mph 3.5 mph 95 % 0.00 in
02:05 41.6 °F 40.3 °F 29.94 in East 2.3 mph 3.5 mph 95 % 0.00 in
02:11 41.6 °F 40.3 °F 29.93 in ENE 3.0 mph 4.0 mph 95 % 0.00 in
02:16 41.6 °F 40.3 °F 29.92 in ENE 3.0 mph 6.0 mph 95 % 0.00 in
02:21 41.5 °F 40.2 °F 29.92 in ENE 5.0 mph 7.0 mph 95 % 0.00 in
02:26 41.4 °F 40.1 °F 29.93 in ENE 2.0 mph 5.0 mph 95 % 0.00 in
02:31 41.4 °F 40.0 °F 29.93 in ENE 3.0 mph 7.0 mph 95 % 0.00 in
02:36 41.2 °F 39.6 °F 29.92 in ENE 5.1 mph 6.9 mph 94 % 0.00 in
02:41 41.1 °F 39.5 °F 29.92 in ENE 5.0 mph 6.0 mph 94 % 0.00 in
02:46 41.0 °F 39.4 °F 29.94 in ENE 2.0 mph 5.0 mph 94 % 0.00 in
02:51 41.0 °F 39.4 °F 29.93 in ENE 2.0 mph 4.0 mph 94 % 0.00 in
02:56 41.0 °F 39.4 °F 29.93 in ENE 3.0 mph 5.0 mph 94 % 0.00 in
03:01 40.9 °F 39.3 °F 29.92 in ENE 4.2 mph 4.6 mph 94 % 0.00 in
03:06 40.8 °F 39.2 °F 29.92 in ENE 4.2 mph 7.0 mph 94 % 0.00 in
03:11 40.7 °F 39.1 °F 29.91 in NE 5.6 mph 8.1 mph 94 % 0.00 in
03:16 40.6 °F 39.0 °F 29.90 in East 6.1 mph 10.4 mph 94 % 0.00 in
03:21 40.5 °F 39.2 °F 29.91 in ENE 5.2 mph 8.1 mph 95 % 0.00 in
03:26 40.5 °F 39.2 °F 29.90 in East 6.0 mph 9.2 mph 95 % 0.00 in
03:31 40.4 °F 39.1 °F 29.90 in East 5.0 mph 9.2 mph 95 % 0.00 in
03:36 40.2 °F 38.9 °F 29.91 in East 5.0 mph 6.9 mph 95 % 0.00 in
03:41 40.2 °F 38.9 °F 29.90 in East 6.3 mph 7.0 mph 95 % 0.00 in
03:46 40.0 °F 38.7 °F 29.90 in East 5.8 mph 9.2 mph 95 % 0.00 in
03:51 40.0 °F 38.7 °F 29.90 in East 7.4 mph 9.2 mph 95 % 0.00 in
03:57 40.0 °F 38.7 °F 29.91 in East 6.1 mph 9.2 mph 95 % 0.00 in
04:02 40.0 °F 39.0 °F 29.91 in ENE 5.5 mph 8.1 mph 96 % 0.00 in
04:07 40.0 °F 39.0 °F 29.92 in ENE 5.4 mph 8.1 mph 96 % 0.00 in
04:12 40.2 °F 39.2 °F 29.92 in ENE 4.9 mph 8.1 mph 96 % 0.00 in
04:17 40.2 °F 39.2 °F 29.92 in East 6.7 mph 10.4 mph 96 % 0.00 in
04:22 40.2 °F 39.2 °F 29.91 in East 7.1 mph 10.4 mph 96 % 0.00 in
04:27 40.3 °F 39.3 °F 29.91 in East 6.2 mph 13.8 mph 96 % 0.01 in
04:32 40.2 °F 39.2 °F 29.93 in ENE 7.7 mph 11.5 mph 96 % 0.01 in
04:37 40.2 °F 39.2 °F 29.93 in ENE 7.8 mph 10.4 mph 96 % 0.02 in
04:42 40.0 °F 39.0 °F 29.92 in NE 9.3 mph 13.8 mph 96 % 0.03 in
04:47 39.8 °F 38.8 °F 29.93 in East 10.3 mph 12.7 mph 96 % 0.05 in
04:52 39.7 °F 38.7 °F 29.93 in East 8.2 mph 10.4 mph 96 % 0.06 in
04:57 39.6 °F 38.6 °F 29.91 in ENE 9.8 mph 13.8 mph 96 % 0.07 in
05:02 39.6 °F 38.6 °F 29.90 in East 9.2 mph 11.5 mph 96 % 0.09 in
05:07 39.5 °F 38.5 °F 29.90 in East 9.8 mph 12.7 mph 96 % 0.10 in
05:12 39.5 °F 38.5 °F 29.91 in East 9.6 mph 12.7 mph 96 % 0.11 in
05:17 39.5 °F 38.5 °F 29.90 in ENE 9.4 mph 13.8 mph 96 % 0.11 in
05:22 39.5 °F 38.5 °F 29.90 in ENE 10.8 mph 13.8 mph 96 % 0.12 in
05:27 39.4 °F 38.4 °F 29.90 in East 8.9 mph 11.5 mph 96 % 0.12 in
05:32 39.4 °F 38.4 °F 29.90 in ENE 9.8 mph 13.0 mph 96 % 0.12 in
05:37 39.4 °F 38.4 °F 29.90 in NE 9.3 mph 11.5 mph 96 % 0.12 in
05:42 39.3 °F 38.3 °F 29.90 in East 9.0 mph 11.5 mph 96 % 0.11 in
05:48 39.3 °F 38.3 °F 29.89 in East 10.8 mph 13.8 mph 96 % 0.10 in
05:53 39.3 °F 38.3 °F 29.88 in ENE 12.3 mph 15.0 mph 96 % 0.10 in
05:58 39.2 °F 38.2 °F 29.88 in East 10.8 mph 13.8 mph 96 % 0.10 in
06:03 39.2 °F 38.2 °F 29.87 in East 10.7 mph 14.0 mph 96 % 0.09 in
06:08 39.2 °F 38.2 °F 29.88 in East 12.2 mph 17.3 mph 96 % 0.08 in
06:13 39.3 °F 38.5 °F 29.89 in ENE 10.3 mph 16.1 mph 97 % 0.08 in
06:18 39.3 °F 38.5 °F 29.89 in East 9.4 mph 12.7 mph 97 % 0.08 in
06:23 39.4 °F 38.6 °F 29.86 in ENE 8.8 mph 11.5 mph 97 % 0.08 in
06:28 39.5 °F 38.7 °F 29.86 in ESE 10.9 mph 13.8 mph 97 % 0.08 in
06:33 39.5 °F 38.7 °F 29.88 in ENE 10.2 mph 12.7 mph 97 % 0.09 in
06:38 39.6 °F 38.8 °F 29.88 in East 9.4 mph 12.7 mph 97 % 0.09 in
06:43 39.6 °F 38.8 °F 29.87 in East 8.9 mph 10.4 mph 97 % 0.09 in
06:48 39.6 °F 38.8 °F 29.89 in East 6.6 mph 9.2 mph 97 % 0.09 in
06:53 39.6 °F 38.8 °F 29.88 in East 6.6 mph 10.0 mph 97 % 0.09 in
06:58 39.5 °F 38.7 °F 29.89 in ENE 6.6 mph 9.2 mph 97 % 0.09 in
07:03 39.4 °F 38.6 °F 29.90 in ENE 8.9 mph 11.5 mph 97 % 0.10 in
07:08 39.2 °F 38.4 °F 29.88 in East 11.3 mph 15.0 mph 97 % 0.10 in
07:13 39.1 °F 38.3 °F 29.89 in ENE 10.1 mph 11.5 mph 97 % 0.11 in
07:19 39.0 °F 38.2 °F 29.88 in East 11.6 mph 16.1 mph 97 % 0.13 in
07:24 38.9 °F 38.1 °F 29.88 in NE 10.2 mph 15.0 mph 97 % 0.12 in
07:29 38.9 °F 38.1 °F 29.88 in ENE 10.2 mph 16.1 mph 97 % 0.12 in
07:34 39.0 °F 38.2 °F 29.88 in ENE 10.0 mph 15.0 mph 97 % 0.12 in
07:39 39.0 °F 38.2 °F 29.88 in East 10.2 mph 15.0 mph 97 % 0.11 in
07:44 39.0 °F 38.2 °F 29.87 in East 10.6 mph 11.5 mph 97 % 0.11 in
07:49 39.0 °F 38.2 °F 29.87 in East 9.6 mph 12.7 mph 97 % 0.11 in
07:54 39.0 °F 38.2 °F 29.87 in East 9.8 mph 12.7 mph 97 % 0.11 in
07:59 39.1 °F 38.3 °F 29.87 in East 8.0 mph 10.4 mph 97 % 0.09 in
08:04 39.1 °F 38.3 °F 29.87 in ENE 6.9 mph 9.2 mph 97 % 0.08 in
08:09 39.2 °F 38.4 °F 29.87 in NE 5.9 mph 6.9 mph 97 % 0.07 in
08:14 39.3 °F 38.5 °F 29.86 in ENE 4.9 mph 7.0 mph 97 % 0.05 in
08:19 39.4 °F 38.6 °F 29.87 in ENE 5.8 mph 9.0 mph 97 % 0.04 in
08:24 39.4 °F 38.6 °F 29.86 in ENE 7.2 mph 9.2 mph 97 % 0.04 in
08:29 39.5 °F 38.7 °F 29.86 in East 5.8 mph 10.4 mph 97 % 0.04 in
08:34 39.5 °F 38.7 °F 29.85 in ENE 7.1 mph 9.2 mph 97 % 0.03 in
08:39 39.5 °F 38.7 °F 29.85 in ENE 7.5 mph 9.2 mph 97 % 0.03 in
08:44 39.3 °F 38.5 °F 29.86 in ENE 6.5 mph 10.4 mph 97 % 0.03 in
08:49 39.3 °F 38.5 °F 29.86 in ENE 6.0 mph 9.2 mph 97 % 0.03 in
08:55 39.3 °F 38.5 °F 29.85 in ENE 8.4 mph 11.0 mph 97 % 0.02 in
09:00 39.3 °F 38.8 °F 29.85 in ENE 9.4 mph 12.0 mph 98 % 0.02 in
09:05 39.2 °F 38.7 °F 29.85 in ENE 8.7 mph 13.8 mph 98 % 0.02 in
09:10 39.1 °F 38.3 °F 29.84 in ENE 9.9 mph 13.8 mph 97 % 0.02 in
09:15 39.0 °F 38.2 °F 29.84 in ENE 7.9 mph 10.4 mph 97 % 0.03 in
09:20 38.9 °F 38.1 °F 29.83 in ENE 8.8 mph 12.7 mph 97 % 0.03 in
09:25 38.9 °F 38.1 °F 29.82 in NE 9.2 mph 15.0 mph 97 % 0.02 in
09:30 38.9 °F 38.1 °F 29.81 in ENE 10.3 mph 12.7 mph 97 % 0.02 in
09:35 38.9 °F 38.4 °F 29.82 in East 10.4 mph 16.1 mph 98 % 0.02 in
09:40 38.9 °F 38.4 °F 29.82 in ENE 8.9 mph 11.5 mph 98 % 0.01 in
09:45 38.9 °F 38.4 °F 29.80 in East 10.2 mph 13.8 mph 98 % 0.02 in
09:50 38.9 °F 38.4 °F 29.79 in East 10.0 mph 15.0 mph 98 % 0.02 in
09:55 38.9 °F 38.4 °F 29.78 in ENE 10.4 mph 14.0 mph 98 % 0.03 in
10:00 39.0 °F 38.5 °F 29.78 in East 9.7 mph 15.0 mph 98 % 0.03 in
10:05 39.0 °F 38.5 °F 29.78 in East 10.0 mph 11.5 mph 98 % 0.03 in
10:10 39.0 °F 38.5 °F 29.78 in ENE 9.8 mph 11.5 mph 98 % 0.04 in
10:15 39.1 °F 38.6 °F 29.78 in ENE 8.6 mph 11.5 mph 98 % 0.03 in
10:20 39.1 °F 38.6 °F 29.77 in ENE 9.5 mph 10.4 mph 98 % 0.04 in
10:26 39.1 °F 38.6 °F 29.78 in East 8.0 mph 13.0 mph 98 % 0.00 in
10:31 39.1 °F 38.6 °F 29.77 in ENE 8.0 mph 13.0 mph 98 % 0.00 in
10:35 39.1 °F 38.6 °F 29.77 in ENE 8.0 mph 12.0 mph 98 % 0.01 in
10:40 39.2 °F 38.7 °F 29.77 in East 7.1 mph 8.1 mph 98 % 0.09 in
10:46 39.2 °F 38.7 °F 29.77 in ENE 9.0 mph 14.0 mph 98 % 0.01 in
10:50 39.2 °F 38.7 °F 29.77 in ENE 8.0 mph 12.0 mph 98 % 0.00 in
10:55 39.1 °F 38.6 °F 29.76 in ENE 8.0 mph 13.0 mph 98 % 0.00 in
11:01 39.1 °F 38.6 °F 29.77 in East 8.1 mph 12.0 mph 98 % 0.09 in
11:06 39.0 °F 38.5 °F 29.76 in ENE 8.9 mph 11.5 mph 98 % 0.09 in
11:11 39.0 °F 38.5 °F 29.76 in NE 9.8 mph 13.8 mph 98 % 0.09 in
11:16 39.0 °F 38.5 °F 29.76 in ENE 8.2 mph 11.5 mph 98 % 0.09 in
11:21 39.0 °F 38.5 °F 29.75 in NE 8.9 mph 15.0 mph 98 % 0.09 in
11:26 39.1 °F 38.6 °F 29.75 in ENE 9.0 mph 13.0 mph 98 % 0.08 in
11:31 39.1 °F 38.6 °F 29.74 in ENE 8.8 mph 13.8 mph 98 % 0.08 in
11:36 39.1 °F 38.6 °F 29.75 in ENE 8.8 mph 12.7 mph 98 % 0.06 in
11:41 39.1 °F 38.6 °F 29.76 in ENE 8.0 mph 11.5 mph 98 % 0.06 in
11:46 39.1 °F 38.6 °F 29.75 in ENE 4.9 mph 8.1 mph 98 % 0.05 in
11:51 39.0 °F 38.5 °F 29.76 in NE 4.4 mph 7.0 mph 98 % 0.05 in
11:56 39.1 °F 38.6 °F 29.77 in NNW 8.2 mph 16.1 mph 98 % 0.05 in
12:01 39.1 °F 38.6 °F 29.75 in North 6.2 mph 11.5 mph 98 % 0.05 in
12:06 39.1 °F 38.6 °F 29.75 in NE 5.3 mph 8.1 mph 98 % 0.05 in
12:11 39.1 °F 38.6 °F 29.74 in ENE 7.3 mph 12.7 mph 98 % 0.05 in
12:16 39.1 °F 38.6 °F 29.73 in NE 8.9 mph 12.7 mph 98 % 0.05 in
12:21 38.9 °F 38.4 °F 29.72 in ENE 7.4 mph 12.7 mph 98 % 0.04 in
12:26 39.0 °F 38.5 °F 29.72 in NE 9.1 mph 15.0 mph 98 % 0.04 in
12:31 38.9 °F 38.4 °F 29.70 in East 10.8 mph 19.6 mph 98 % 0.03 in
12:36 38.9 °F 38.4 °F 29.69 in ENE 9.6 mph 17.3 mph 98 % 0.04 in
12:41 38.9 °F 38.4 °F 29.69 in NE 12.5 mph 17.3 mph 98 % 0.03 in
12:46 38.9 °F 38.4 °F 29.68 in ENE 10.7 mph 15.0 mph 98 % 0.03 in
12:52 39.0 °F 38.5 °F 29.68 in ENE 9.3 mph 15.0 mph 98 % 0.03 in
12:57 39.0 °F 38.5 °F 29.67 in ENE 10.9 mph 13.8 mph 98 % 0.02 in
13:02 39.1 °F 38.6 °F 29.66 in East 10.9 mph 13.8 mph 98 % 0.02 in
13:07 39.2 °F 38.7 °F 29.66 in ENE 8.8 mph 16.1 mph 98 % 0.01 in
13:12 39.3 °F 38.8 °F 29.66 in East 8.7 mph 11.5 mph 98 % 0.01 in
13:17 39.4 °F 38.9 °F 29.67 in ENE 7.5 mph 9.2 mph 98 % 0.01 in
13:22 39.3 °F 38.8 °F 29.68 in ENE 8.3 mph 12.7 mph 98 % 0.01 in
13:27 39.2 °F 38.7 °F 29.67 in ENE 9.1 mph 15.0 mph 98 % 0.01 in
13:32 39.2 °F 38.7 °F 29.68 in ENE 6.3 mph 11.5 mph 98 % 0.02 in
13:37 39.2 °F 38.7 °F 29.68 in East 9.6 mph 13.0 mph 98 % 0.01 in
13:42 39.2 °F 38.7 °F 29.68 in NE 7.9 mph 11.5 mph 98 % 0.01 in
13:47 39.2 °F 38.7 °F 29.68 in ENE 6.9 mph 10.4 mph 98 % 0.01 in
13:52 39.2 °F 38.7 °F 29.68 in NE 5.9 mph 11.5 mph 98 % 0.01 in
13:57 39.3 °F 38.8 °F 29.69 in NNE 5.3 mph 8.1 mph 98 % 0.01 in
14:02 39.3 °F 38.8 °F 29.69 in ENE 3.3 mph 7.0 mph 98 % 0.01 in
14:07 39.3 °F 38.8 °F 29.67 in East 9.0 mph 11.5 mph 98 % 0.01 in
14:12 39.2 °F 38.7 °F 29.67 in ENE 9.2 mph 12.7 mph 98 % 0.01 in
14:18 39.2 °F 38.7 °F 29.70 in NNE 5.3 mph 9.0 mph 98 % 0.01 in
14:23 39.3 °F 38.8 °F 29.74 in NNE 7.8 mph 12.7 mph 98 % 0.01 in
14:28 39.2 °F 38.7 °F 29.73 in NE 6.1 mph 12.7 mph 98 % 0.01 in
14:33 39.3 °F 38.8 °F 29.72 in North 6.3 mph 11.5 mph 98 % 0.00 in
14:38 39.3 °F 38.8 °F 29.72 in NE 5.4 mph 8.1 mph 98 % 0.00 in
Crab Meadow Weather
Compliments of Weather Underground - 2.25 mb

Script developed by  Jim McMurry - jmcmurry@mwt.net Adapted for the template by  Wim van der Kuil - Leuven-Template.eu

Weather Terms: Flood Watch - Conditions are favorable for flash flooding in and close to the watch area. These watches are issued by the Weather Forecast Office in Upton and are usually for the first 12 to 24 hours of a forecast.